Domov               UVHVVR             MKGP            O straneh              
ZDRAVSTVENO VARSTVO RASTLIN
  MREŽA AGROMET. POSTAJ
 ► PROGNOSTIČNA OBVESTILA
AGROMETEOROLOŠKI PODATKI -
ARSO
OBVLADOVANJE TVEGANJ ZARADI
NEUGODNIH VREMENSKIH RAZMER
  ► NARAVNE NESREČE
  ► SUŠA/MOČA
  ► NAMAKANJE
  ► ŽLED (gozdarstvo)
KARTOGRAFSKI PRIKAZI
SPLETNE POVEZAVE
PROJEKTI IN PUBLIKACIJE

AGROMETEOROLOŠKA MREŽA: VREMENSKE POSTAJE IN FENOLOŠKA OPAZOVANJA

Pregled podatkov za lokacijo Radlje ob Dravi, meteorološka postaja 857248

Pregled senzorjev na lokaciji

ID Ime Zadnja
vrednost
Datum
zadnje
spremembe
Tip
senzorja
3912 Temperatura 2 m (°C) 5,79 °C 18.1.2018 20:00 50YA
3913 Relativna vlaga 2 m (% RH) 46,95 % RH 18.1.2018 20:00 50YA
3914 Omočenost lista (U) 0 U 18.1.2018 20:00 A730WET
3915 Hitrost vetra (km/h) 11,27 km/h 18.1.2018 20:00 566.2S-176 (200km/h)
3916 Padavine (mm) 0 mm 18.1.2018 20:00 Rain-O-Matic
3917 Smer vetra (°) 153,22 ° 18.1.2018 20:00 566.2S-130

Pregled podatkov zadnjih 24 ur

Zap.
št.
Datum in čas Radlje ob Dravi
Hitrost
vetra
Omočenost
lista
Padavine Relativna
vlaga
2
m
Smer
vetra
Temperatura
2
m
0 18.1.2018 20:00 11,27 0 0 46,95 153,22 5,79
1 18.1.2018 19:30 10,55 0 0 47,57 148,68 5,73
2 18.1.2018 19:00 9,97 0 0 46,74 162,59 5,84
3 18.1.2018 18:30 9,67 0 0 47,45 160,01 5,68
4 18.1.2018 18:00 9,25 0 0 44,18 221,1 6,14
5 18.1.2018 17:30 9,75 0 0 45,71 213,9 6,03
6 18.1.2018 17:00 9,23 0 0 46,94 168,37 5,99
7 18.1.2018 16:30 6,77 0 0 44,75 184,22 6,61
8 18.1.2018 16:00 4,19 0 0 45,17 190,35 7,05
9 18.1.2018 15:30 5,08 0 0 43,11 253,63 7,41
10 18.1.2018 15:00 6,27 0 0 42,53 342,94 7,5
11 18.1.2018 14:30 7,09 0 0 42,97 249,32 7,26
12 18.1.2018 14:00 8,58 0 0 44,85 250,82 6,8
13 18.1.2018 13:30 7,14 0 0 47,76 277,8 6,02
14 18.1.2018 13:00 9,31 0 0 47,82 276,3 6,06
15 18.1.2018 12:30 5,59 0 0 52,83 260,35 5,6
16 18.1.2018 12:00 3,67 0 0 59,77 47,88 4,37
17 18.1.2018 11:30 1,44 0 0 70,26 12,17 2,54
18 18.1.2018 11:00 1,11 0 0 72,71 325,01 1,93
19 18.1.2018 10:30 1,25 0 0 72,21 148,06 2,2
20 18.1.2018 10:00 0,92 0 0 72,73 15,33 2,21
21 18.1.2018 09:30 1,49 0 0 77,24 342,7 1,19
22 18.1.2018 09:00 2,55 0 0 82,68 114,15 -0,32
23 18.1.2018 08:30 2,51 0 0 78,75 124,79 0,14
24 18.1.2018 08:00 1,19 0 0 78,13 21,04 0,11
25 18.1.2018 07:30 2,08 0 0 78,42 276,96 0,19
26 18.1.2018 07:00 0,92 0 0 84,38 311,08 -1,09
27 18.1.2018 06:30 0,47 0 0 86,82 134,1 -1,72
28 18.1.2018 06:00 1,16 0 0 84,86 55,99 -1,31
29 18.1.2018 05:30 1,65 0 0 84,22 56,72 -1,18
30 18.1.2018 05:00 1,2 0 0 81,12 13,85 -0,71
31 18.1.2018 04:30 0,8 0 0 80,58 117,41 -0,55
32 18.1.2018 04:00 0,9 0 0 85,07 351,67 -1,31
33 18.1.2018 03:30 0,52 0 0 82,65 93,12 -0,77
34 18.1.2018 03:00 0,94 0 0 76,43 122,74 0,54
35 18.1.2018 02:30 0,49 0 0 75,62 285,29 0,97
36 18.1.2018 02:00 1,6 0 0 76,76 7,99 1,05
37 18.1.2018 01:30 2,05 0 0 80,71 14,19 0,69
38 18.1.2018 01:00 3,09 0 0 78,51 286,85 1,12
39 18.1.2018 00:30 1,45 0 0 79,38 121,92 -0,99
40 18.1.2018 00:00 1,06 0 0 80,04 60,54 -1,63
41 17.1.2018 23:30 1,92 0 0 78,25 92,63 -1,22
42 17.1.2018 23:00 1,33 0 0 78,31 91,26 -1,55
43 17.1.2018 22:30 0,47 0 0 76,37 56,52 -1,33
44 17.1.2018 22:00 0,79 0 0 74,1 53,82 -0,85
45 17.1.2018 21:30 0,76 0 0 61,56 103,12 0,57
46 17.1.2018 21:00 1,32 0 0 57,8 328,56 1,26
© 2011 Ministrstvo za kmetijstvo, gozdarstvo in prehrano. Vse pravice pridržane.